Location: Glendale
(37.4556°N, 88.6714°W)
Time: 05:00:39
(UTC+00:00)

Cosmos 407 Rocket - Pass Details

Date: 08 December 2019
Orbit: 743 x 787 km, 74.0° (Epoch: 21 January)

Event Time Altitude Azimuth Distance (km) Brightness Sun altitude
Exits shadow 11:10:59 31° 326° (NW) 1,349 4.4 -20.3°
Maximum altitude 11:13:28 64° 255° (WSW) 870 3.5 -19.9°
Drops below altitude 10° 11:18:44 10° 175° (S) 2,338 6.2 -18.9°
Sets 11:21:08 0° 172° (S) 3,261 7.1 -18.4°
